This demonstration page uses our WeatherBlox Daily Observations layout. Learn more.

Left ArrowRight Arrow

38.83388, -104.82136

Hourly Observations for November 14, 2019

Temp ( °F °C ) Dew Point ( °F °C ) Humidity (%) Winds ( mph kmh ) Pressure ( in mb ) Visibility ( mi km ) Precip ( " mm )
12:58 am 00:58 Clear 34 1.3 24 -4.3 67 67 S 14 22 29.83 1010 10 16 0.00 0.00
1:58 am 01:58 Clear 32 0 24 -4.4 73 73 Calm 29.85 1011 10 16 0.00 0.00
2:58 am 02:58 Partly Cloudy 30 -1 24 -4.5 77 77 Calm 29.93 1014 10 16 0.00 0.00
3:08 am 03:08 Mostly Cloudy 30 -1 25 -4 80 80 N 3 6 29.93 1014 10 16 0.00 0.00
3:58 am 03:58 Mostly Cloudy 29 -1.4 24 -4.2 81 81 Calm 29.96 1015 10 16 0.00 0.00
4:28 am 04:28 Partly Cloudy 30 -1 25 -4 80 80 Calm 29.97 1015 10 16 0.00 0.00
4:38 am 04:38 Mostly Cloudy 28 -2 23 -5 80 80 Calm 29.99 1016 10 16 0.00 0.00
4:53 am 04:53 Partly Cloudy 28 -2 23 -5 80 80 Calm 30.00 1016 10 16 0.00 0.00
4:58 am 04:58 Partly Cloudy 28 -2.3 24 -4.7 84 84 NW 3 6 30.00 1016 10 16 0.00 0.00
5:58 am 05:58 Clear 28 -2.3 24 -4.5 85 85 Calm 30.04 1017 10 16 0.00 0.00
6:58 am 06:58 Sunny 30 -1.3 24 -4.2 81 81 S 7 11 30.04 1017 10 16 0.00 0.00
7:58 am 07:58 Sunny 33 0.6 27 -3 77 77 SE 12 19 30.06 1018 10 16 0.00 0.00
8:58 am 08:58 Partly Cloudy 35 1.9 27 -2.6 72 72 E 7 11 30.06 1018 10 16 0.00 0.00
9:58 am 09:58 Sunny 39 3.9 27 -2.7 62 62 SE 17 28 30.04 1017 10 16 0.00 0.00
10:58 am 10:58 Sunny 41 4.8 26 -3.3 56 56 SE 16 26 30.01 1016 10 16 0.00 0.00
11:58 am 11:58 Sunny 42 5.7 26 -3.3 53 53 SSE 14 22 29.99 1016 10 16 0.00 0.00
12:58 pm 12:58 Sunny 43 6.3 26 -3.2 51 51 SE 10 17 29.96 1014 10 16 0.00 0.00
1:58 pm 13:58 Sunny 44 6.7 26 -3.5 49 49 SE 13 20 29.95 1014 10 16 0.00 0.00
2:58 pm 14:58 Mostly Cloudy 42 5.8 25 -3.7 51 51 SSE 14 22 29.96 1015 10 16 0.00 0.00
3:58 pm 15:58 Partly Cloudy 41 5.2 25 -3.9 52 52 SSE 14 22 29.97 1015 10 16 0.00 0.00
4:58 pm 16:58 Mostly Clear 38 3.3 27 -3 64 64 S 12 19 30.03 1017 10 16 0.00 0.00
5:58 pm 17:58 Clear 37 2.9 26 -3.3 64 64 S 6 9 30.03 1017 10 16 0.00 0.00
6:58 pm 18:58 Clear 36 2.3 25 -3.7 65 65 NW 5 7 30.03 1017 10 16 0.00 0.00
7:58 pm 19:58 Clear 35 1.8 26 -3.5 68 68 NNW 7 11 30.01 1016 10 16 0.00 0.00
8:58 pm 20:58 Clear 35 1.8 26 -3.5 68 68 S 3 6 29.98 1015 10 16 0.00 0.00
9:58 pm 21:58 Clear 35 1.5 26 -3.6 69 69 Calm 29.95 1014 10 16 0.00 0.00
10:58 pm 22:58 Clear 34 1 25 -3.9 70 70 Calm 29.94 1014 10 16 0.00 0.00

Powered by AerisWeather